Tracking 29892 objects as of 21-Nov-2024
HD Live streaming from Space Station
objects crossing your sky now

FLOCK 4Q 23

Track FLOCK 4Q 23 now!
10-day predictions
FLOCK 4Q 23 is classified as:


NORAD ID: 58307
Int'l Code: 2023-174BD
Perigee: 485.1 km
Apogee: 500.4 km
Inclination: 97.4 °
Period: 94.3 minutes
Semi major axis: 6863 km
RCS: Unknown
Launch date: November 11, 2023
Source: United States (US)
Launch site: AIR FORCE WESTERN TEST RANGE (AFWTR)
Your satellite tracking list
Your tracking list is empty




NASA's NSSDC Master Catalog

Two Line Element Set (TLE):
1 58307U 23174BD  24326.15774106  .00021553  00000-0  81988-3 0  9991
2 58307  97.4456  39.7840 0011183  36.9141 323.2865 15.26727829 57605
Source of the keplerian elements: AFSPC